Atlantic - Newfoundland: Past 24 Hour Conditions

 

Ferolle Point

12:30 PM NDT 16 April 2014
This table is a summary of hourly weather conditions for the past 24 hours.
Date / Time
(NDT)
Wind(knots) Conditions Visibility(km) Pressure(kPa) Air tempC) Relative humidity(%) Dew pointC)
16 April 2014
12:30 SSW 28 gust 33 N/A N/A 100.0 10 84 8
11:30 SSW 31 gust 38 N/A N/A 100.1 10 87 8
10:30 SSW 23 gust 29 N/A N/A 100.2 8 91 7
9:30 SSW 32 gust 37 N/A N/A 100.2 9 93 8
8:30 SSW 29 N/A N/A 100.3 8 96 7
7:30 SSW 25 gust 32 N/A N/A 100.3 7 95 7
6:30 SSW 26 gust 31 N/A N/A 100.3 7 94 6
5:30 SSW 24 N/A N/A 100.4 6 93 5
4:30 SSW 24 N/A N/A 100.5 7 92 6
3:30 SSW 25 N/A N/A 100.6 8 88 6
2:30 SSW 23 N/A N/A 100.7 7 87 4
1:30 SSW 20 N/A N/A 100.8 6 87 4
0:30 SSW 18 N/A N/A 100.8 5 89 3
15 April 2014
23:30 SSW 22 N/A N/A 100.8 5 91 4
22:30 SW 15 N/A N/A 100.9 4 99 4
21:30 WSW 9 N/A N/A 101.0 3 100 3
20:30 SSW 12 N/A N/A 101.0 3 100 3
19:30 SSW 15 gust 20 N/A N/A 101.0 3 100 3
18:30 SSW 21 N/A N/A 101.0 4 100 4
17:30 SSW 19 N/A N/A 101.0 3 100 3
16:30 SSW 22 gust 27 N/A N/A 101.0 3 100 3
15:30 SSW 25 N/A N/A 100.9 3 100 3
14:30 SSW 25 N/A N/A 100.9 3 100 3
13:30 SSW 26 N/A N/A 100.9 2 100 2
12:30 SSW 24 gust 31 N/A N/A 100.8 2 100 2
 
Map of Atlantic - Newfoundland marine weather areas Southwestern Grand Banks - 44138 Banquereau - 44139 Tail of the Bank - 44140 Nickerson Bank - 44251 Northeast Burgeo Bank - 44255 Blanc-Sablon Airport Cap Whittle Chevery Natashquan Airport Heath Point Miscou Island Grand Étang Ingonish Beach North Mountain St.Paul Island J.A. Douglas McCurdy Sydney Airport Charlottetown Airport East Point North Cape Argentia Bonavista Burgeo Cape Race Corner Brook Daniel's Harbour Englee Ferolle Point La Scie Port aux Basques Rocky Harbour Sagona Island St. Anthony Airport St. John's Int'l Airport St. Lawrence Stephenville Airport Twillingate Winterland Wreckhouse Cartwright Airport Mary's Harbour Grates Cove Pool's Island Marticot Island Long Pond Îles de la Madeleine Airport
Legend: buoyBuoy land stationLand Station